Portada
METAR-TAF:

METAR-TAF

Aeropuertos :

Bella Coola, Columbia Británica, Canadá

latitud: 52-23N, longitud: 126-35W, altitud: 35 m

Observación

El informe se hizo hace 45 minutos, a las 16:00 UTC
Viento calma
Temperatura 1°C
Humedad 100%
Presión 1021 hPa
Visibilidad: 24.1 km
Escasas nubes a una altura de 26000 ft

METAR: CYBD 211600Z 00000KT 15SM FEW260 01/01 A3015 RMK CI1 SLP214

Hora: 09:45 (16:45 UTC)


TAF: falta

Observaciones y pronósticos meteorológicos de más de 4000 aeropuertos (mensajes METAR y TAF).

Los puntos amarillos y rojos representan las estaciones disponibles.

Ponga el ratón en el punto deseado para ver el nombre de la estación.

Haga clic para ver las observaciones y los pronósticos meteorológicos.

Para cambiar el mapa : haga clic en los botones verdes con una cruz de color negro para hacer un zoom, en el botón verde con un guión para alejar o en las flechas verdes para mapas adyacentes.


METAR-TAF: